UAE203 KJFK-OMBD

Flight info

Callsign UAE203
Flight time N/A
Altitude 37000
Route DCT BETTE DCT ACK DCT BRADD N175G PORTI/M084F330 NATT GISTI/N0486F330 DCT LESLU/N0484F350 DCT LIZAD DCT JSY DCT ARSUK DCT RESMI DCT ODEBU DCT OGULO DCT OKASI DCT OKEKO DCT MOU DCT MADIV DCT MOKIP DCT TUFTA DCT KOGAS DCT MEDAM DCT NITAM DCT MOGBO DCT UPDIN DCT SOMAS DCT BELIX DCT SALUN/N0484F370 N705 MMA P751 DASUM Y234 FYM M872 BDB Y214 RAPMA DCT KUVSO DCT KATIT DCT PEKEM M628 RIGIL G783 ELUDA/N0503F350 G783 ASPED Q308 KIPOK Q568 IMPED IMPED3C
Aircraft B77W/H-VGDW/C

Departure

Time 2026-05-05 00:09
Airport John F. Kennedy International Airport (KJFK)

Arrival

Time N/A
Airport OMBD
Time Latitude Longitude Altitude Speed Heading
2026-05-04 23:43 40.64097 -73.78326 25 ft 0 kts 60°
2026-05-04 23:55 40.64090 -73.78342 31 ft 4 kts 54°
2026-05-04 23:56 40.64075 -73.78370 31 ft 4 kts 49°
2026-05-04 23:56 40.64061 -73.78395 31 ft 4 kts 92°
2026-05-04 23:56 40.64065 -73.78424 31 ft 4 kts 137°
2026-05-04 23:56 40.64088 -73.78439 28 ft 4 kts 154°
2026-05-04 23:57 40.64096 -73.78445 27 ft 0 kts 151°
2026-05-05 00:00 40.64076 -73.78431 28 ft 7 kts 151°
2026-05-05 00:00 40.64059 -73.78418 29 ft 10 kts 151°
2026-05-05 00:00 40.63936 -73.78331 28 ft 12 kts 152°
2026-05-05 00:00 40.63857 -73.78292 28 ft 12 kts 168°
2026-05-05 00:01 40.63772 -73.78276 29 ft 12 kts 175°
2026-05-05 00:01 40.63687 -73.78264 28 ft 12 kts 174°
2026-05-05 00:01 40.63601 -73.78256 28 ft 12 kts 184°
2026-05-05 00:01 40.63522 -73.78296 30 ft 12 kts 209°
2026-05-05 00:02 40.63444 -73.78306 26 ft 12 kts 148°
2026-05-05 00:02 40.63396 -73.78210 26 ft 13 kts 121°
2026-05-05 00:02 40.63350 -73.78105 31 ft 14 kts 115°
2026-05-05 00:02 40.63334 -73.77963 26 ft 17 kts 86°
2026-05-05 00:03 40.63383 -73.77810 27 ft 20 kts 44°
2026-05-05 00:03 40.63512 -73.77706 29 ft 24 kts 30°
2026-05-05 00:03 40.63665 -73.77589 28 ft 27 kts 31°
2026-05-05 00:03 40.63835 -73.77454 29 ft 30 kts 31°
2026-05-05 00:04 40.64022 -73.77305 29 ft 33 kts 31°
2026-05-05 00:04 40.64220 -73.77148 31 ft 33 kts 31°
2026-05-05 00:04 40.64404 -73.77015 30 ft 22 kts 21°
2026-05-05 00:04 40.64552 -73.76955 26 ft 22 kts 27°
2026-05-05 00:05 40.64687 -73.76852 29 ft 22 kts 31°
2026-05-05 00:05 40.64812 -73.76752 30 ft 15 kts 31°
2026-05-05 00:05 40.64903 -73.76679 32 ft 15 kts 31°
2026-05-05 00:05 40.64981 -73.76617 32 ft 9 kts 31°
2026-05-05 00:06 40.64994 -73.76607 28 ft 0 kts 31°
2026-05-05 00:06 40.65031 -73.76578 32 ft 9 kts 31°
2026-05-05 00:06 40.65086 -73.76534 32 ft 9 kts 31°
2026-05-05 00:07 40.65096 -73.76456 27 ft 10 kts 110°
2026-05-05 00:07 40.65063 -73.76381 27 ft 10 kts 130°
2026-05-05 00:07 40.65004 -73.76369 27 ft 10 kts 206°
2026-05-05 00:07 40.64996 -73.76375 27 ft 0 kts 209°
2026-05-05 00:08 40.64990 -73.76379 27 ft 7 kts 209°
2026-05-05 00:08 40.64767 -73.76554 32 ft 79 kts 211°
2026-05-05 00:09 40.64031 -73.77121 28 ft 164 kts 208°
2026-05-05 00:09 40.62904 -73.78034 399 ft 205 kts 212°
2026-05-05 00:09 40.61696 -73.79012 1692 ft 202 kts 211°
2026-05-05 00:09 40.60458 -73.79925 2546 ft 214 kts 211°
2026-05-05 00:10 40.59052 -73.80924 2591 ft 246 kts 211°
2026-05-05 00:10 40.57539 -73.82025 3268 ft 247 kts 211°
2026-05-05 00:10 40.56048 -73.83143 4086 ft 247 kts 213°
2026-05-05 00:10 40.54569 -73.84306 4750 ft 247 kts 213°
2026-05-05 00:11 40.53086 -73.85519 5019 ft 253 kts 213°
2026-05-05 00:11 40.51429 -73.86224 5016 ft 261 kts 183°
2026-05-05 00:11 40.49626 -73.85719 5012 ft 272 kts 158°
2026-05-05 00:11 40.48073 -73.84269 5018 ft 279 kts 136°
2026-05-05 00:12 40.47010 -73.82120 5012 ft 285 kts 114°
2026-05-05 00:12 40.46648 -73.79564 4991 ft 288 kts 86°
2026-05-05 00:12 40.46945 -73.76968 5304 ft 292 kts 81°
2026-05-05 00:12 40.47284 -73.74314 5930 ft 297 kts 81°
2026-05-05 00:13 40.47622 -73.71631 6641 ft 298 kts 80°
2026-05-05 00:13 40.47960 -73.68934 7321 ft 300 kts 80°
2026-05-05 00:13 40.48297 -73.66208 7968 ft 303 kts 79°
2026-05-05 00:13 40.48634 -73.63460 8605 ft 307 kts 79°
2026-05-05 00:14 40.48971 -73.60677 9213 ft 312 kts 79°
2026-05-05 00:14 40.49305 -73.57906 9925 ft 309 kts 79°
2026-05-05 00:14 40.49640 -73.55103 10512 ft 313 kts 79°
2026-05-05 00:14 40.49989 -73.52187 10672 ft 333 kts 79°
2026-05-05 00:15 40.50359 -73.49082 10864 ft 353 kts 79°
2026-05-05 00:15 40.50615 -73.46923 10962 ft 367 kts 79°
2026-05-05 00:15 40.51018 -73.43512 11150 ft 388 kts 79°
2026-05-05 00:15 40.51436 -73.39946 11558 ft 400 kts 79°
2026-05-05 00:16 40.52002 -73.35087 12322 ft 410 kts 80°
2026-05-05 00:16 40.52435 -73.31353 12997 ft 416 kts 80°
2026-05-05 00:16 40.52730 -73.28809 13468 ft 418 kts 80°
2026-05-05 00:16 40.53170 -73.25007 14143 ft 422 kts 80°
2026-05-05 00:17 40.53613 -73.21176 14807 ft 426 kts 80°
2026-05-05 00:17 40.54058 -73.17306 15477 ft 429 kts 80°
2026-05-05 00:17 40.54506 -73.13414 16124 ft 432 kts 80°
2026-05-05 00:17 40.54956 -73.09489 16767 ft 436 kts 80°
2026-05-05 00:18 40.55403 -73.05578 17413 ft 440 kts 80°
2026-05-05 00:18 40.55908 -73.01597 18046 ft 442 kts 76°
2026-05-05 00:18 40.56712 -72.97673 18610 ft 445 kts 69°
2026-05-05 00:18 40.57720 -72.93814 19175 ft 447 kts 69°
2026-05-05 00:19 40.58744 -72.89927 19756 ft 449 kts 69°
2026-05-05 00:19 40.59756 -72.86075 20330 ft 452 kts 69°
2026-05-05 00:19 40.60778 -72.82153 20890 ft 454 kts 69°
2026-05-05 00:19 40.61801 -72.78195 21449 ft 457 kts 69°
2026-05-05 00:20 40.62824 -72.74207 21987 ft 460 kts 69°
2026-05-05 00:20 40.63847 -72.70200 22524 ft 463 kts 69°
2026-05-05 00:20 40.64875 -72.66162 23050 ft 466 kts 69°
2026-05-05 00:20 40.65895 -72.62143 23555 ft 469 kts 69°
2026-05-05 00:21 40.66931 -72.58055 23979 ft 472 kts 68°
2026-05-05 00:21 40.67969 -72.53947 24428 ft 473 kts 68°
2026-05-05 00:21 40.69011 -72.49821 24880 ft 475 kts 68°
2026-05-05 00:21 40.70057 -72.45672 25300 ft 477 kts 68°
2026-05-05 00:22 40.71107 -72.41505 25705 ft 480 kts 68°
2026-05-05 00:22 40.72160 -72.37313 26107 ft 482 kts 68°
2026-05-05 00:22 40.73217 -72.33101 26491 ft 484 kts 68°
2026-05-05 00:22 40.74277 -72.28869 26871 ft 487 kts 68°
2026-05-05 00:23 40.75340 -72.24618 27256 ft 489 kts 68°
2026-05-05 00:23 40.76391 -72.20404 27636 ft 491 kts 68°
2026-05-05 00:23 40.77460 -72.16115 27983 ft 493 kts 68°
2026-05-05 00:23 40.78532 -72.11803 28331 ft 495 kts 68°
2026-05-05 00:24 40.79608 -72.07470 28637 ft 498 kts 68°
2026-05-05 00:24 40.80688 -72.03111 28877 ft 501 kts 68°
2026-05-05 00:24 40.81771 -71.98730 29185 ft 503 kts 68°
2026-05-05 00:24 40.82856 -71.94334 29509 ft 504 kts 68°
2026-05-05 00:25 40.83943 -71.89920 29808 ft 505 kts 68°
2026-05-05 00:25 40.85028 -71.85506 30129 ft 505 kts 68°
2026-05-05 00:25 40.86108 -71.81100 30484 ft 503 kts 68°
2026-05-05 00:25 40.87183 -71.76708 30861 ft 501 kts 68°
2026-05-05 00:26 40.88258 -71.72311 31009 ft 504 kts 68°